WXM80 ListenWXM80 Stop

You find our weather info also at:

UK Metoffice

WeatherCloud

Weather Underground

Northeastern Weather Network

AWEKAS

Citizen Weather Observer Program (CWOP)

HAMweather, WeatherForYou, PWS Weather


Weather Underground History page Text

Daily Summary for June 28, 2017 Units:  Metric    English   Both
« Previous Day
Next Day »
Daily Weekly Monthly Yearly Custom
  High: Low: Average:
Temperature: 29.1 °C 14.8 °C 21.4 °C
Dew Point: 17.2 °C 11.5 °C 13.8 °C
Humidity: 93 % 37 % 65 %
Wind Speed: 11.7 km/h 0 km/h 2.7 km/h
Wind Gust: 20.9 km/h - -
Wind:- - WSW
Pressure: 1018.5 hPa 1014.8 hPa -
Precipitation: 0 mm    
Historical Graphs
 
 
Tabular Data for June 28, 2017
Time Temperature Dew Point Pressure Wind Wind Speed Wind Gust Humidity Rainfall Rate (Hourly)
00:01 16.8 °C 14.1 °C 1014.8 hPa Calm     84 % 0 mm
00:06 16.7 °C 14 °C 1014.8 hPa Calm     84 % 0 mm
00:11 16.7 °C 13.9 °C 1014.8 hPa Calm     84 % 0 mm
00:16 16.6 °C 13.8 °C 1014.8 hPa Calm     84 % 0 mm
00:21 16.4 °C 13.9 °C 1014.8 hPa Calm     85 % 0 mm
00:26 16.3 °C 13.8 °C 1014.8 hPa Calm     85 % 0 mm
00:31 16.3 °C 13.9 °C 1014.8 hPa Calm     86 % 0 mm
00:36 16.2 °C 13.8 °C 1014.8 hPa Calm     86 % 0 mm
00:41 16.1 °C 13.8 °C 1014.8 hPa Calm     86 % 0 mm
00:46 16.1 °C 13.7 °C 1014.8 hPa Calm     86 % 0 mm
00:51 16 °C 13.7 °C 1014.8 hPa Calm     86 % 0 mm
00:56 15.9 °C 13.6 °C 1014.8 hPa Calm     86 % 0 mm
01:01 15.9 °C 13.7 °C 1014.8 hPa Calm     87 % 0 mm
01:06 15.8 °C 13.7 °C 1015.1 hPa Calm     87 % 0 mm
01:11 15.8 °C 13.6 °C 1014.8 hPa Calm     87 % 0 mm
01:16 15.7 °C 13.6 °C 1014.8 hPa Calm     87 % 0 mm
01:21 15.7 °C 13.5 °C 1014.8 hPa Calm     87 % 0 mm
01:26 15.6 °C 13.4 °C 1014.8 hPa Calm     87 % 0 mm
01:31 15.5 °C 13.3 °C 1014.8 hPa Calm     87 % 0 mm
01:36 15.4 °C 13.3 °C 1014.8 hPa Calm     87 % 0 mm
01:41 15.3 °C 13.2 °C 1014.8 hPa Calm     87 % 0 mm
01:46 15.3 °C 13.1 °C 1015.1 hPa Calm     87 % 0 mm
01:51 15.2 °C 13.2 °C 1015.1 hPa Calm     88 % 0 mm
01:56 15.1 °C 12.9 °C 1015.1 hPa Calm     87 % 0 mm
02:01 15.1 °C 13.1 °C 1014.8 hPa Calm     88 % 0 mm
02:06 15 °C 12.8 °C 1015.1 hPa Calm     87 % 0 mm
02:11 14.9 °C 13 °C 1015.1 hPa Calm     88 % 0 mm
02:16 14.9 °C 13.2 °C 1015.1 hPa Calm     89 % 0 mm
02:21 14.9 °C 13.1 °C 1015.1 hPa Calm     89 % 0 mm
02:22 14.9 °C 13.1 °C 1015.1 hPa Calm     89 % 0 mm
02:27 14.9 °C 13.1 °C 1015.5 hPa Calm     89 % 0 mm
02:32 14.8 °C 13.2 °C 1015.5 hPa Calm     90 % 0 mm
02:37 14.8 °C 13.2 °C 1015.5 hPa Calm     90 % 0 mm
02:42 14.9 °C 13.4 °C 1015.5 hPa Calm     91 % 0 mm
02:47 14.9 °C 13.6 °C 1015.5 hPa SW 0.3 km/h 1.9 km/h 92 % 0 mm
02:52 14.9 °C 13.7 °C 1015.5 hPa SW 1.3 km/h 3.7 km/h 92 % 0 mm
02:57 15 °C 13.7 °C 1015.5 hPa SW 0.5 km/h 1.9 km/h 92 % 0 mm
03:02 15.1 °C 13.9 °C 1015.5 hPa SW 1.3 km/h 3.7 km/h 93 % 0 mm
03:07 15.1 °C 14 °C 1015.5 hPa SW 0.6 km/h 3.2 km/h 93 % 0 mm
03:12 15.2 °C 14.1 °C 1015.5 hPa SW 0.3 km/h 1.9 km/h 93 % 0 mm
03:17 15.2 °C 14.1 °C 1015.5 hPa WSW 4 km/h 5.6 km/h 93 % 0 mm
03:22 15.2 °C 14.1 °C 1015.5 hPa WSW 0.2 km/h 5.6 km/h 93 % 0 mm
03:27 15.2 °C 14.1 °C 1015.5 hPa WSW 1.9 km/h 3.2 km/h 93 % 0 mm
03:32 15.2 °C 14.1 °C 1015.8 hPa West 1.3 km/h 5.6 km/h 93 % 0 mm
03:37 15.1 °C 13.8 °C 1015.8 hPa West 2.9 km/h 5.6 km/h 92 % 0 mm
03:43 15.1 °C 13.7 °C 1015.8 hPa West 3.7 km/h 7.4 km/h 91 % 0 mm
03:48 15.1 °C 13.4 °C 1015.8 hPa NW 1.4 km/h 5.6 km/h 90 % 0 mm
03:53 15.1 °C 13.3 °C 1015.8 hPa WSW 0.3 km/h 3.7 km/h 89 % 0 mm
03:58 15.1 °C 13.1 °C 1015.8 hPa West 1.4 km/h 5.6 km/h 88 % 0 mm
04:03 15.2 °C 12.8 °C 1015.8 hPa SW 3.1 km/h 5.6 km/h 86 % 0 mm
04:08 15.3 °C 12.9 °C 1015.8 hPa West 4.8 km/h 11.1 km/h 86 % 0 mm
04:10 15.3 °C 12.8 °C 1016.1 hPa West 2.4 km/h 5.6 km/h 85 % 0 mm
04:15 15.4 °C 12.9 °C 1016.1 hPa SW 0.3 km/h 1.9 km/h 85 % 0 mm
04:20 15.5 °C 13 °C 1016.1 hPa West 1.8 km/h 5.6 km/h 85 % 0 mm
04:25 15.6 °C 12.9 °C 1016.1 hPa West 2.1 km/h 5.6 km/h 84 % 0 mm
04:30 15.7 °C 12.8 °C 1016.1 hPa WNW 3.2 km/h 6.4 km/h 83 % 0 mm
04:36 15.8 °C 12.7 °C 1016.1 hPa West 7.4 km/h 11.1 km/h 82 % 0 mm
04:41 15.8 °C 12.8 °C 1016.1 hPa West 3.2 km/h 8 km/h 82 % 0 mm
04:46 15.9 °C 12.8 °C 1016.1 hPa West 1.6 km/h 8 km/h 82 % 0 mm
04:51 15.9 °C 12.9 °C 1016.1 hPa West 1.6 km/h 8 km/h 82 % 0 mm
04:56 15.9 °C 12.7 °C 1016.5 hPa West 3.9 km/h 11.3 km/h 81 % 0 mm
04:59 15.9 °C 12.7 °C 1016.1 hPa West 1.9 km/h 11.1 km/h 81 % 0 mm
05:04 15.9 °C 12.7 °C 1016.1 hPa West 2.4 km/h 5.6 km/h 81 % 0 mm
05:09 15.9 °C 12.7 °C 1016.5 hPa WNW 1.9 km/h 5.6 km/h 81 % 0 mm
05:14 15.9 °C 12.7 °C 1016.5 hPa WSW 5.6 km/h 8 km/h 81 % 0 mm
05:19 15.9 °C 12.6 °C 1016.5 hPa West 4.3 km/h 5.6 km/h 81 % 0 mm
05:24 15.9 °C 12.6 °C 1016.5 hPa WSW 2.4 km/h 5.6 km/h 81 % 0 mm
05:29 15.9 °C 12.6 °C 1016.5 hPa WNW 0.8 km/h 3.7 km/h 81 % 0 mm
05:34 15.9 °C 12.6 °C 1016.5 hPa West 2.4 km/h 5.6 km/h 81 % 0 mm
05:39 15.8 °C 12.6 °C 1016.5 hPa WSW 1 km/h 5.6 km/h 81 % 0 mm
05:45 15.8 °C 12.8 °C 1016.5 hPa WNW 1.3 km/h 6.4 km/h 82 % 0 mm
05:50 15.8 °C 12.8 °C 1016.5 hPa WSW 3.1 km/h 5.6 km/h 82 % 0 mm
05:55 15.8 °C 12.8 °C 1016.8 hPa West 3.5 km/h 4.8 km/h 82 % 0 mm
06:00 15.8 °C 12.7 °C 1016.8 hPa WNW 0.2 km/h 3.7 km/h 82 % 0 mm
06:05 15.8 °C 12.7 °C 1016.8 hPa WNW 1.8 km/h 11.3 km/h 82 % 0 mm
06:10 15.8 °C 12.9 °C 1016.8 hPa WSW 3.2 km/h 5.6 km/h 83 % 0 mm
06:15 15.8 °C 12.9 °C 1016.8 hPa NW 2.4 km/h 6.4 km/h 83 % 0 mm
06:20 15.9 °C 13 °C 1016.8 hPa SW 1 km/h 5.6 km/h 83 % 0 mm
06:25 15.9 °C 13.1 °C 1016.8 hPa WNW 1.3 km/h 8 km/h 83 % 0 mm
06:30 16 °C 13.1 °C 1016.8 hPa WNW 2.1 km/h 8 km/h 83 % 0 mm
06:35 16.1 °C 13.2 °C 1016.8 hPa NW 4.5 km/h 9.3 km/h 83 % 0 mm
06:40 16.2 °C 13.3 °C 1016.8 hPa WNW 5.3 km/h 9.3 km/h 83 % 0 mm
06:45 16.3 °C 13.4 °C 1016.8 hPa SW 3.7 km/h 9.3 km/h 83 % 0 mm
06:51 16.5 °C 13.6 °C 1017.2 hPa WNW 1.6 km/h 8 km/h 83 % 0 mm
06:56 16.7 °C 13.6 °C 1017.2 hPa WNW 1.6 km/h 11.3 km/h 82 % 0 mm
07:01 16.9 °C 13.7 °C 1017.2 hPa WNW 1.8 km/h 14.8 km/h 81 % 0 mm
07:06 17.2 °C 13.9 °C 1017.2 hPa NW 3.2 km/h 9.3 km/h 81 % 0 mm
07:11 17.4 °C 13.7 °C 1017.2 hPa NW 3.5 km/h 13 km/h 79 % 0 mm
07:16 17.6 °C 14.1 °C 1017.2 hPa WNW 5.8 km/h 14.8 km/h 80 % 0 mm
07:21 17.7 °C 14.1 °C 1017.5 hPa WNW 2.4 km/h 9.3 km/h 79 % 0 mm
07:26 17.9 °C 14.2 °C 1017.5 hPa WNW 3.7 km/h 7.4 km/h 79 % 0 mm
07:31 18.1 °C 14.3 °C 1017.5 hPa NW 1.3 km/h 5.6 km/h 79 % 0 mm
07:36 18.2 °C 14.1 °C 1017.5 hPa WNW 4.5 km/h 9.3 km/h 77 % 0 mm
07:41 18.3 °C 14.4 °C 1017.5 hPa WNW 2.1 km/h 5.6 km/h 78 % 0 mm
07:46 18.3 °C 14.2 °C 1017.8 hPa NW 3.1 km/h 5.6 km/h 77 % 0 mm
07:51 18.2 °C 13.9 °C 1017.5 hPa NW 1.9 km/h 11.1 km/h 76 % 0 mm
07:56 18.2 °C 13.9 °C 1017.8 hPa West 1.4 km/h 9.7 km/h 76 % 0 mm
08:01 18.2 °C 13.9 °C 1017.8 hPa West 1 km/h 5.6 km/h 76 % 0 mm
08:02 18.2 °C 13.9 °C 1017.8 hPa North 1.1 km/h 6.4 km/h 76 % 0 mm
08:07 18.1 °C 14 °C 1017.8 hPa NNE 1.4 km/h 7.4 km/h 77 % 0 mm
08:12 18.1 °C 13.8 °C 1017.8 hPa West 4.2 km/h 11.1 km/h 76 % 0 mm
08:17 18.1 °C 13.9 °C 1017.8 hPa West 3.7 km/h 11.1 km/h 77 % 0 mm
08:22 18.1 °C 13.9 °C 1017.8 hPa WNW 2.1 km/h 6.4 km/h 77 % 0 mm
08:27 18 °C 13.9 °C 1018.2 hPa WNW 2.1 km/h 5.6 km/h 77 % 0 mm
08:32 18 °C 13.9 °C 1018.2 hPa WNW 5.6 km/h 7.4 km/h 77 % 0 mm
08:37 18.1 °C 13.9 °C 1018.2 hPa NW 6.8 km/h 9.7 km/h 77 % 0 mm
08:42 18.1 °C 14 °C 1018.2 hPa West 6.1 km/h 9.3 km/h 77 % 0 mm
08:47 18.2 °C 13.9 °C 1018.2 hPa West 3.7 km/h 7.4 km/h 76 % 0 mm
08:52 18.2 °C 14.1 °C 1018.2 hPa West 4.2 km/h 5.6 km/h 77 % 0 mm
08:57 18.3 °C 14.2 °C 1018.2 hPa WNW 1 km/h 3.7 km/h 77 % 0 mm
09:02 18.3 °C 14 °C 1018.2 hPa WNW 4.5 km/h 8 km/h 76 % 0 mm
09:07 18.4 °C 13.9 °C 1018.2 hPa West 2.7 km/h 7.4 km/h 75 % 0 mm
09:12 18.4 °C 14.1 °C 1018.2 hPa West 5.1 km/h 9.7 km/h 76 % 0 mm
09:17 18.5 °C 14 °C 1018.2 hPa WNW 2.9 km/h 7.4 km/h 75 % 0 mm
09:22 18.6 °C 13.9 °C 1018.2 hPa West 6.6 km/h 11.1 km/h 74 % 0 mm
09:27 18.7 °C 14.3 °C 1018.2 hPa NW 1.9 km/h 7.4 km/h 76 % 0 mm
09:32 18.8 °C 14.3 °C 1018.2 hPa WNW 7.1 km/h 9.3 km/h 75 % 0 mm
09:38 18.9 °C 14.4 °C 1017.8 hPa WNW 3.1 km/h 9.3 km/h 75 % 0 mm
09:43 19.1 °C 14.4 °C 1018.2 hPa WNW 2.1 km/h 7.4 km/h 74 % 0 mm
09:48 19.3 °C 14.6 °C 1018.2 hPa WNW 4.7 km/h 11.3 km/h 74 % 0 mm
09:53 19.8 °C 15.1 °C 1018.2 hPa NW 5.6 km/h 9.3 km/h 74 % 0 mm
09:58 20.3 °C 15.3 °C 1018.2 hPa NW 6.8 km/h 13 km/h 73 % 0 mm
10:03 20.8 °C 14.7 °C 1018.2 hPa WNW 5.6 km/h 11.3 km/h 68 % 0 mm
10:04 20.9 °C 15.1 °C 1018.2 hPa NW 3.1 km/h 11.1 km/h 69 % 0 mm
10:09 21.5 °C 15.3 °C 1018.2 hPa WSW 5.1 km/h 7.4 km/h 68 % 0 mm
10:14 22.1 °C 16.1 °C 1018.2 hPa SSW 3.2 km/h 5.6 km/h 69 % 0 mm
10:19 22.6 °C 16.1 °C 1018.2 hPa WNW 2.7 km/h 9.7 km/h 67 % 0 mm
10:24 22.9 °C 15.4 °C 1017.8 hPa WNW 3.9 km/h 8 km/h 63 % 0 mm
10:29 23.3 °C 16.1 °C 1017.8 hPa SW 1 km/h 9.3 km/h 64 % 0 mm
10:34 23.7 °C 15.8 °C 1017.8 hPa West 2.6 km/h 8 km/h 61 % 0 mm
10:40 24.1 °C 15.8 °C 1017.8 hPa WSW 3.4 km/h 5.6 km/h 60 % 0 mm
10:45 24.3 °C 15.6 °C 1017.8 hPa West 5 km/h 9.3 km/h 58 % 0 mm
10:50 24.6 °C 14.9 °C 1017.8 hPa WNW 1.8 km/h 3.7 km/h 55 % 0 mm
10:55 24.9 °C 17.2 °C 1017.8 hPa WSW 4.8 km/h 6.4 km/h 62 % 0 mm
11:00 25.3 °C 15.6 °C 1017.8 hPa WNW 4.3 km/h 9.3 km/h 55 % 0 mm
11:05 25.4 °C 16.3 °C 1017.8 hPa WSW 4.8 km/h 6.4 km/h 57 % 0 mm
11:10 25.6 °C 15.9 °C 1017.8 hPa SW 4.5 km/h 5.6 km/h 55 % 0 mm
11:15 25.7 °C 15.7 °C 1017.8 hPa West 6.1 km/h 11.1 km/h 54 % 0 mm
11:20 25.8 °C 16.3 °C 1017.8 hPa SSW 2.7 km/h 5.6 km/h 56 % 0 mm
11:25 25.8 °C 14.9 °C 1018.2 hPa NNW 4.5 km/h 5.6 km/h 51 % 0 mm
11:30 25.9 °C 15.3 °C 1018.2 hPa West 8 km/h 13 km/h 52 % 0 mm
11:35 26.2 °C 15.6 °C 1018.2 hPa West 4.7 km/h 9.3 km/h 52 % 0 mm
11:40 26.3 °C 16.2 °C 1018.2 hPa WNW 4.2 km/h 13 km/h 54 % 0 mm
11:45 26.4 °C 14.5 °C 1018.2 hPa SW 6.1 km/h 7.4 km/h 48 % 0 mm
11:50 26.6 °C 15.6 °C 1018.2 hPa WNW 2.1 km/h 5.6 km/h 51 % 0 mm
11:55 26.6 °C 14.3 °C 1018.2 hPa WSW 9.2 km/h 20.9 km/h 47 % 0 mm
12:00 26.7 °C 14.7 °C 1018.2 hPa WSW 7.1 km/h 13 km/h 48 % 0 mm
12:05 26.8 °C 15.6 °C 1018.2 hPa West 3.1 km/h 5.6 km/h 50 % 0 mm
12:10 26.8 °C 13.6 °C 1018.2 hPa West 3.2 km/h 16.7 km/h 44 % 0 mm
12:15 26.8 °C 13.6 °C 1018.2 hPa NW 5.6 km/h 9.7 km/h 44 % 0 mm
12:20 26.8 °C 14.2 °C 1018.5 hPa WNW 0.5 km/h 1.9 km/h 46 % 0 mm
12:25 27.1 °C 14.8 °C 1018.5 hPa NW 2.6 km/h 9.3 km/h 47 % 0 mm
12:30 27.1 °C 14.8 °C 1018.2 hPa SSW 5.6 km/h 18.5 km/h 47 % 0 mm
12:36 27.1 °C 13.8 °C 1018.2 hPa SW 4.8 km/h 12.9 km/h 44 % 0 mm
12:41 27.2 °C 14.9 °C 1018.2 hPa West 4.3 km/h 9.7 km/h 47 % 0 mm
12:46 27.2 °C 13.5 °C 1018.2 hPa WNW 3.4 km/h 6.4 km/h 43 % 0 mm
12:51 27.3 °C 15.3 °C 1018.2 hPa WNW 4.8 km/h 9.7 km/h 48 % 0 mm
12:56 27.4 °C 13.7 °C 1018.2 hPa West 6 km/h 9.3 km/h 43 % 0 mm
13:01 27.3 °C 14 °C 1018.2 hPa SSW 3.5 km/h 5.6 km/h 44 % 0 mm
13:06 27.5 °C 14.5 °C 1018.2 hPa West 5.1 km/h 9.3 km/h 45 % 0 mm
13:11 27.6 °C 12.7 °C 1018.2 hPa WSW 8.2 km/h 14.8 km/h 40 % 0 mm
13:16 27.5 °C 13.1 °C 1018.2 hPa WSW 3.4 km/h 7.4 km/h 41 % 0 mm
13:21 27.6 °C 14.6 °C 1018.2 hPa NW 7.6 km/h 14.8 km/h 45 % 0 mm
13:26 27.7 °C 13.6 °C 1018.2 hPa NW 6.4 km/h 13 km/h 42 % 0 mm
13:31 27.7 °C 13.7 °C 1018.2 hPa SW 6.9 km/h 9.3 km/h 42 % 0 mm
13:36 27.8 °C 13.3 °C 1018.2 hPa SW 11.7 km/h 16.7 km/h 41 % 0 mm
13:41 27.8 °C 13.7 °C 1018.2 hPa SW 8.7 km/h 14.8 km/h 42 % 0 mm
13:46 27.7 °C 12.9 °C 1018.5 hPa North 6.6 km/h 18.5 km/h 40 % 0 mm
13:51 27.7 °C 13.7 °C 1018.2 hPa SSW 5.3 km/h 9.3 km/h 42 % 0 mm
13:56 27.7 °C 14.3 °C 1018.2 hPa WSW 4 km/h 9.3 km/h 44 % 0 mm
14:01 27.8 °C 15.8 °C 1018.2 hPa SW 6.8 km/h 9.7 km/h 48 % 0 mm
14:06 27.9 °C 14.5 °C 1018.2 hPa North 4.5 km/h 7.4 km/h 44 % 0 mm
14:11 27.9 °C 13.1 °C 1018.2 hPa SW 9 km/h 16.7 km/h 40 % 0 mm
14:16 27.9 °C 14.2 °C 1017.8 hPa WNW 5.8 km/h 11.1 km/h 43 % 0 mm
14:21 28 °C 13.9 °C 1017.8 hPa West 8.5 km/h 14.8 km/h 42 % 0 mm
14:26 28.1 °C 14.3 °C 1017.8 hPa West 7.6 km/h 13 km/h 43 % 0 mm
14:31 28.1 °C 14.7 °C 1017.8 hPa West 6.8 km/h 9.3 km/h 44 % 0 mm
14:36 28.1 °C 14.7 °C 1017.8 hPa WNW 6.3 km/h 16.7 km/h 44 % 0 mm
14:37 28.1 °C 14.7 °C 1017.8 hPa WNW 5 km/h 16.7 km/h 44 % 0 mm
14:42 28.2 °C 14.4 °C 1017.8 hPa WSW 0.8 km/h 5.6 km/h 43 % 0 mm
14:47 28.3 °C 13.8 °C 1017.5 hPa NW 7.4 km/h 11.1 km/h 41 % 0 mm
14:52 28.4 °C 15.3 °C 1017.5 hPa NNW 5 km/h 11.3 km/h 45 % 0 mm
14:57 28.5 °C 14.3 °C 1017.5 hPa WNW 8.2 km/h 16.7 km/h 42 % 0 mm
15:02 28.6 °C 13.7 °C 1017.5 hPa NW 4.5 km/h 9.3 km/h 40 % 0 mm
15:07 28.7 °C 15.3 °C 1017.5 hPa SW 1.3 km/h 3.7 km/h 44 % 0 mm
15:12 28.8 °C 15 °C 1017.5 hPa WNW 2.9 km/h 9.3 km/h 43 % 0 mm
15:17 28.9 °C 14.7 °C 1017.5 hPa SW 5.6 km/h 16.1 km/h 42 % 0 mm
15:22 29 °C 14.4 °C 1017.5 hPa SW 5 km/h 8 km/h 41 % 0 mm
15:27 29 °C 14.1 °C 1017.5 hPa West 0.2 km/h 1.9 km/h 40 % 0 mm
15:32 29.1 °C 13.3 °C 1017.2 hPa South 5.6 km/h 13 km/h 38 % 0 mm
15:37 29 °C 14.1 °C 1017.2 hPa West 5.8 km/h 8 km/h 40 % 0 mm
15:42 28.9 °C 13.9 °C 1017.2 hPa SSW 4.5 km/h 8 km/h 40 % 0 mm
15:47 28.9 °C 14.3 °C 1017.2 hPa SSW 4.7 km/h 6.4 km/h 41 % 0 mm
15:52 28.9 °C 13.2 °C 1017.2 hPa WSW 5.1 km/h 9.3 km/h 38 % 0 mm
15:57 28.8 °C 13.1 °C 1017.2 hPa SSW 3.2 km/h 5.6 km/h 38 % 0 mm
16:02 28.8 °C 14.2 °C 1017.2 hPa WNW 3.5 km/h 6.4 km/h 41 % 0 mm
16:07 28.7 °C 15.3 °C 1017.2 hPa WSW 0.8 km/h 9.3 km/h 44 % 0 mm
16:12 28.7 °C 14.5 °C 1017.2 hPa WSW 6.3 km/h 6.4 km/h 42 % 0 mm
16:17 28.7 °C 12.9 °C 1017.2 hPa SSW 5.1 km/h 9.3 km/h 38 % 0 mm
16:20 28.7 °C 13.3 °C 1017.2 hPa SSW 7.2 km/h 9.7 km/h 39 % 0 mm
16:25 28.6 °C 12.8 °C 1016.8 hPa SW 8.5 km/h 13 km/h 38 % 0 mm
16:30 28.6 °C 12.8 °C 1016.8 hPa West 8.2 km/h 11.3 km/h 38 % 0 mm
16:36 28.5 °C 12.8 °C 1016.8 hPa SW 8 km/h 14.5 km/h 38 % 0 mm
16:41 28.5 °C 12.4 °C 1016.8 hPa SW 4.8 km/h 9.7 km/h 37 % 0 mm
16:46 28.6 °C 12.8 °C 1016.8 hPa WSW 3.2 km/h 9.7 km/h 38 % 0 mm
16:51 28.5 °C 12.8 °C 1016.8 hPa SW 3.2 km/h 8 km/h 38 % 0 mm
16:56 28.5 °C 12.8 °C 1016.8 hPa WSW 4.8 km/h 11.3 km/h 38 % 0 mm
17:01 28.6 °C 12.8 °C 1016.8 hPa SW 7.9 km/h 11.1 km/h 38 % 0 mm
17:06 28.4 °C 12.3 °C 1016.8 hPa WSW 6.1 km/h 11.1 km/h 37 % 0 mm
17:11 28.3 °C 12.7 °C 1016.8 hPa WSW 6 km/h 7.4 km/h 38 % 0 mm
17:16 28.2 °C 12.6 °C 1016.8 hPa West 5.6 km/h 9.7 km/h 38 % 0 mm
17:21 28.1 °C 12.8 °C 1016.8 hPa West 5.5 km/h 7.4 km/h 39 % 0 mm
17:26 28 °C 12.8 °C 1016.8 hPa Calm   1.9 km/h 39 % 0 mm
17:31 27.9 °C 12.7 °C 1016.8 hPa WSW 6.4 km/h 13 km/h 39 % 0 mm
17:36 27.8 °C 12.2 °C 1016.8 hPa SSW 4.5 km/h 7.4 km/h 38 % 0 mm
17:41 27.6 °C 12 °C 1016.8 hPa NW 4.2 km/h 6.4 km/h 38 % 0 mm
17:46 27.5 °C 12.3 °C 1016.8 hPa West 0.3 km/h 3.7 km/h 39 % 0 mm
17:51 27.3 °C 12.2 °C 1016.8 hPa WSW 4.7 km/h 7.4 km/h 39 % 0 mm
17:53 27.3 °C 12.9 °C 1016.8 hPa Calm   1.9 km/h 41 % 0 mm
17:58 27.1 °C 12.7 °C 1017.2 hPa WSW 7.7 km/h 13 km/h 41 % 0 mm
18:03 26.9 °C 12.6 °C 1016.8 hPa WSW 1.1 km/h 3.7 km/h 41 % 0 mm
18:08 26.8 °C 12.5 °C 1016.8 hPa WSW 0.8 km/h 9.3 km/h 41 % 0 mm
18:13 26.7 °C 12.7 °C 1016.8 hPa WNW 3.2 km/h 7.4 km/h 42 % 0 mm
18:18 26.6 °C 11.5 °C 1016.8 hPa SW 4 km/h 5.6 km/h 39 % 0 mm
18:23 26.5 °C 12.6 °C 1016.8 hPa WSW 3.4 km/h 5.6 km/h 42 % 0 mm
18:34 26.3 °C 12 °C 1016.8 hPa WSW 3.5 km/h 5.6 km/h 41 % 0 mm
18:39 26.3 °C 12 °C 1016.8 hPa SW 4 km/h 5.6 km/h 41 % 0 mm
18:44 26.2 °C 12.2 °C 1016.8 hPa SW 2.1 km/h 3.7 km/h 42 % 0 mm
18:49 26.1 °C 12.2 °C 1016.8 hPa West 1.1 km/h 5.6 km/h 42 % 0 mm
18:54 26 °C 12.4 °C 1017.2 hPa West 0.3 km/h 3.7 km/h 43 % 0 mm
18:59 25.9 °C 12.4 °C 1016.8 hPa Calm   3.7 km/h 43 % 0 mm
19:04 25.8 °C 12.3 °C 1017.2 hPa Calm     43 % 0 mm
19:09 25.7 °C 14.2 °C 1017.2 hPa SSW 0.3 km/h 5.6 km/h 49 % 0 mm
19:14 25.4 °C 14.9 °C 1017.2 hPa ENE 2.3 km/h 5.6 km/h 52 % 0 mm
19:20 25.1 °C 14.6 °C 1017.2 hPa SSE 0.3 km/h 5.6 km/h 52 % 0 mm
19:25 24.8 °C 14.8 °C 1017.2 hPa SSE 0.8 km/h 1.9 km/h 54 % 0 mm
19:30 24.6 °C 14.9 °C 1017.2 hPa West 2.9 km/h 7.4 km/h 55 % 0 mm
19:31 24.6 °C 14.9 °C 1017.2 hPa South 1.6 km/h 8 km/h 55 % 0 mm
19:36 24.4 °C 14.8 °C 1017.2 hPa South 1.6 km/h 8 km/h 55 % 0 mm
19:41 24.2 °C 14.6 °C 1017.2 hPa South 3.2 km/h 14.5 km/h 55 % 0 mm
19:46 23.9 °C 14.6 °C 1017.2 hPa SSW 1.6 km/h 4.8 km/h 56 % 0 mm
19:50 23.7 °C 14.4 °C 1017.2 hPa SE 3.7 km/h 6.4 km/h 56 % 0 mm
19:55 23.4 °C 14.4 °C 1017.2 hPa SSW 0.8 km/h 1.9 km/h 57 % 0 mm
20:00 23.2 °C 14.5 °C 1017.2 hPa SE 2.3 km/h 5.6 km/h 58 % 0 mm
20:05 23 °C 14.3 °C 1017.2 hPa South 1 km/h 5.6 km/h 58 % 0 mm
20:10 22.8 °C 14.3 °C 1017.2 hPa SSE 1.1 km/h 3.2 km/h 59 % 0 mm
20:15 22.6 °C 14.4 °C 1017.2 hPa SSW 4 km/h 5.6 km/h 60 % 0 mm
20:20 22.4 °C 14.2 °C 1017.2 hPa SSW 1 km/h 5.6 km/h 60 % 0 mm
20:25 22.2 °C 14.1 °C 1017.2 hPa South 1.9 km/h 3.7 km/h 60 % 0 mm
20:26 22.2 °C 14.1 °C 1017.2 hPa South 2.9 km/h 5.6 km/h 60 % 0 mm
20:31 22.1 °C 14.2 °C 1017.2 hPa SSW 2.9 km/h 5.6 km/h 61 % 0 mm
20:36 21.8 °C 14.2 °C 1017.5 hPa South 0.5 km/h 3.7 km/h 62 % 0 mm
20:41 21.7 °C 14.1 °C 1017.5 hPa SSW 0.6 km/h 3.7 km/h 62 % 0 mm
20:46 21.6 °C 14.2 °C 1017.5 hPa SSW 1.9 km/h 5.6 km/h 63 % 0 mm
20:51 21.4 °C 14.3 °C 1017.2 hPa SW 1.4 km/h 5.6 km/h 64 % 0 mm
20:56 21.3 °C 14.2 °C 1017.5 hPa SW 2.3 km/h 5.6 km/h 64 % 0 mm
21:01 21.2 °C 14.1 °C 1017.5 hPa SW 0.6 km/h 1.9 km/h 64 % 0 mm
21:06 21.1 °C 14.2 °C 1017.5 hPa SW 1.1 km/h 3.7 km/h 65 % 0 mm
21:11 20.9 °C 14.1 °C 1017.5 hPa SW 0.2 km/h 1.9 km/h 65 % 0 mm
21:16 20.8 °C 14.2 °C 1017.8 hPa WSW 1 km/h 1.9 km/h 66 % 0 mm
21:21 20.7 °C 14.2 °C 1017.5 hPa SW 1.6 km/h 3.7 km/h 66 % 0 mm
21:23 20.7 °C 14.1 °C 1017.5 hPa SW 0.6 km/h 1.9 km/h 66 % 0 mm
21:28 20.6 °C 14.3 °C 1017.5 hPa WSW 1.8 km/h 5.6 km/h 67 % 0 mm
21:33 20.5 °C 14.2 °C 1017.5 hPa SW 2.6 km/h 5.6 km/h 67 % 0 mm
21:38 20.4 °C 14.1 °C 1017.5 hPa SSW 0.6 km/h 3.7 km/h 67 % 0 mm
21:43 20.3 °C 14 °C 1017.8 hPa SSW 0.5 km/h 1.9 km/h 67 % 0 mm
21:48 20.3 °C 14.2 °C 1017.8 hPa SSW 0.3 km/h 3.7 km/h 68 % 0 mm
21:53 20.2 °C 14.1 °C 1017.8 hPa SSW 0.5 km/h 1.9 km/h 68 % 0 mm
21:58 20.2 °C 14.1 °C 1017.8 hPa SSE 0.3 km/h 5.6 km/h 68 % 0 mm
22:03 20.1 °C 14 °C 1017.8 hPa Calm   1.9 km/h 68 % 0 mm
22:08 20.1 °C 13.9 °C 1018.2 hPa SSE 0.5 km/h 1.9 km/h 68 % 0 mm
22:13 20.1 °C 14.2 °C 1018.2 hPa South 0.3 km/h 1.9 km/h 69 % 0 mm
22:19 20.1 °C 14.2 °C 1017.8 hPa South 0.3 km/h 3.7 km/h 69 % 0 mm
22:24 20 °C 14.1 °C 1017.8 hPa Calm   1.9 km/h 69 % 0 mm
22:29 19.9 °C 14.1 °C 1018.2 hPa Calm   1.9 km/h 69 % 0 mm
22:34 19.9 °C 14.1 °C 1018.2 hPa Calm   1.9 km/h 69 % 0 mm
22:39 19.9 °C 14.1 °C 1018.2 hPa SSW 0.2 km/h 3.7 km/h 69 % 0 mm
22:44 19.9 °C 14.3 °C 1018.2 hPa Calm   1.9 km/h 70 % 0 mm
22:49 19.8 °C 14.2 °C 1018.2 hPa WSW 0.8 km/h 3.7 km/h 70 % 0 mm
22:54 19.8 °C 14.2 °C 1018.2 hPa WSW 1 km/h 3.7 km/h 70 % 0 mm
22:59 19.8 °C 14.2 °C 1018.2 hPa Calm   1.9 km/h 70 % 0 mm
23:04 19.8 °C 14.2 °C 1018.2 hPa SSW 0.8 km/h 1.9 km/h 70 % 0 mm
23:09 19.8 °C 14.2 °C 1018.2 hPa SW 1.8 km/h 5.6 km/h 70 % 0 mm
23:14 19.8 °C 14.2 °C 1018.5 hPa SW 0.2 km/h 1.9 km/h 70 % 0 mm
23:19 19.8 °C 14.4 °C 1018.5 hPa SW 0.6 km/h 1.9 km/h 71 % 0 mm
23:24 19.8 °C 14.4 °C 1018.2 hPa SW 0.5 km/h 1.9 km/h 71 % 0 mm
23:29 19.8 °C 14.4 °C 1018.5 hPa SW 0.2 km/h 1.9 km/h 71 % 0 mm
23:34 19.7 °C 14.3 °C 1018.2 hPa Calm   1.9 km/h 71 % 0 mm
23:39 19.7 °C 14.3 °C 1018.5 hPa SSW 1.4 km/h 3.7 km/h 71 % 0 mm
23:44 19.7 °C 14.3 °C 1018.2 hPa Calm   3.7 km/h 71 % 0 mm
23:49 19.7 °C 14.3 °C 1018.5 hPa SW 0.3 km/h 1.9 km/h 71 % 0 mm
23:54 19.7 °C 14.3 °C 1018.5 hPa SW 0.2 km/h 1.9 km/h 71 % 0 mm
23:55 19.7 °C 14.3 °C 1018.5 hPa Calm   1.9 km/h 71 % 0 mm
Crab Meadow Weather
Compliments of Weather Underground - 3 mb

Script developed by  Jim McMurry - jmcmurry@mwt.net Adapted for the template by  Wim van der Kuil - Leuven-Template.eu

Recycling: Recycling 1 aluminum can saves enough energy to run your TV for 3 hours. Recycling aluminum cans saves 95% of the energy used to make cans from virgin ore.